"Pseudo-MPEC" for ST26G46

Created 2026 Jul 17 8:35:06 UT using Find_Orb

Click here for an explanation of pseudo-MPECs

 
 Astrometry: 
     ST26G46* C2026 07 16.28764121 51 19.636-02 49 12.84   ~7G7Z 18.25GVNEOCPU68
     ST26G46  C2026 07 16.29098221 51 11.723-02 47 34.35   ~7G7Z 18.25GVNEOCPU68
     ST26G46  C2026 07 16.30627321 50 35.597-02 40 08.73   ~7G7o 18.18GVNEOCPU74
     ST26G46  C2026 07 16.30774321 50 32.211-02 39 27.08   ~7G7o 18.18GVNEOCPU74
     ST26G46  C2026 07 16.43396621 45 45.141-01 41 20.78   ~7GGox18.64GVNEOCPU74
     ST26G46  C2026 07 16.43730821 45 37.903-01 39 50.46   ~7GGo 18.64GVNEOCPU74
     ST26G46  C2026 07 16.44601321 45 19.083-01 36 05.41   ~7GGox18.51GVNEOCPU74
     ST26G46  C2026 07 16.44935421 45 11.875-01 34 35.44   ~7GGo 18.51GVNEOCPU74
     ST26G46 3B2026 07 16.57901821 41 03.530-00 38 46.78   ~7GJ5 18.9 GXNEOCPT03
     ST26G46 3B2026 07 16.57973721 41 02.092-00 38 29.20   ~7GJ5 18.7 GXNEOCPT03
     ST26G46 3B2026 07 16.58045821 41 00.684-00 38 13.02   ~7GJ5 19.8 GXNEOCPT03
     ST26G46 KC2026 07 16.87977121 33 31.958+01 03 51.30   ~7GMKx19.2 GXNEOCPL18
     ST26G46 KC2026 07 16.88902921 33 17.681+01 06 47.88   ~7GMK 19.2 GXNEOCPL18
     ST26G46 KB2026 07 16.88927921 33 21.605+01 07 09.59   ~7GM5 19.4 GXNEOCP595
     ST26G46 KB2026 07 16.89425621 33 14.035+01 08 43.15   ~7GM5 19.2 GXNEOCP595
     ST26G46 KB2026 07 16.89601621 33 12.962+01 09 26.62   ~7GMK 19.84GXNEOCP126
     ST26G46 KC2026 07 16.89791421 33 04.116+01 09 36.83   ~7GMK 18.6 GXNEOCPL18
     ST26G46 KB2026 07 16.90919321 32 53.071+01 13 33.17   ~7GMKx19.90GXNEOCP126
     ST26G46 KC2026 07 16.91663 21 32 41.45 +01 16 15.8    ~7GMZ 19.1 VZNEOCPC82
     ST26G46 KC2026 07 16.92722 21 32 25.21 +01 19 31.8    ~7GMZx18.8 VZNEOCPC82
     ST26G46 KB2026 07 16.93664 21 32 06.72 +01 21 48.4    ~7GN5 19.3 GXNEOCPL04
     ST26G46 KB2026 07 16.94829 21 31 49.18 +01 25 21.2    ~7GN5 19.4 GXNEOCPL04
     ST26G46 0C2026 07 17.02604321 30 03.250+01 47 53.09   ~7H15 19.3 GWNEOCPJ95
     ST26G46 0C2026 07 17.02918121 29 58.807+01 48 47.20   ~7H15 19.1 GWNEOCPJ95
     ST26G46 0C2026 07 17.03184421 29 55.034+01 49 32.92   ~7H15 19.2 GWNEOCPJ95
     ST26G46 0C2026 07 17.03486721 29 50.760+01 50 24.58   ~7H15 19.3 GWNEOCPJ95
     ST26G46 KC2026 07 17.29057621 24 46.126+02 59 01.86   ~7H8K 20.0 VZNEOCPH36
     ST26G46 KC2026 07 17.29885921 24 35.837+03 01 01.99   ~7H8K 19.8 VZNEOCPH36
     ST26G46 KC2026 07 17.30715221 24 25.584+03 03 02.41   ~7H8K 20.0 VZNEOCPH36

Station data:
(126) Monte Viseggi  (N44.132565 E9.790150)  Italy.
   Observers L. Sannino, A. Mancuso, S. Mercanti, D. Agnetti. Measurers L.
   Sannino, A. Mancuso. 0.41-m f/5.3 reflector + CCD.
(595) Farra d'Isonzo  (N45.915731 E13.525780)  Italy.  Observers S. Aschi, E.
   Pettarin, G. Panterotto. Measurers S. Aschi, E. Pettarin. 0.40-m f/5.15
   reflector + CCD.
(C82) Osservatorio Astronomico Nastro Verde, Sorrento  (N40.618774
   E14.357590)  Italy.  Observer N. Ruocco. 0.35-m f/6.3 Schmidt-Cassegrain +
   CCD.
(H36) Sandlot Observatory, Scranton  (N38.797718 W95.706550)  US/Kansas.
   Observer G. Hug. 0.56-m reflector + CCD.
(J95) Great Shefford  (N51.474969 W1.447003)  UK/England.  Observer P.
   Birtwhistle. 0.41-m f/6.3 Schmidt-Cassegrain + CCD.
(L04) ROASTERR-1 Observatory, Cluj-Napoca  (N46.820952 E23.596400)  Romania.
   Observer L. Hudin. 0.1-m f/9 refractor + CCD.
(L18) QOS Observatory, Zalistci  (N48.848292 E26.718280)  Ukraine.  Observers
   O. V. Kravchenko, Y. V. Tanasiychuk. Measurer A. M. Kozhukhov. 0.50-m
   f/3.8 reflector + CCD.
(T03) Haleakala-LCO Clamshell {#}3  (N20.706985 W156.257530)  US/Hawaii.
   Observers T. Santana-Ros, M. Micheli, L. Conversi. Measurer M. Micheli.
   0.4-m reflector + CCD.
(U68) JPL SynTrack Robotic Telescope, Auberry  (N37.070387 W119.412990)
   US/California.  Observers N. Saini, C. Zhai, R. Trahan, M. Zhan, M. Shao.
   0.28-m f/2.2 Schmidt + CCD.
(U74) JPL SynTrack Robotic Telescope 2, Auberry  (N37.070341 W119.412800)
   US/California.  Observers N. Saini, C. Zhai, R. Trahan, M. Zhan, M. Shao.
   0.36-m f/2.2 Schmidt.

Orbital elements:  ST26G46
   Perihelion 2026 Jun 4.314605 +/- 0.0125 TT =  7:33:01.9 (JD 2461195.814605)
Epoch 2026 Jul 17.0 TT = JDT 2461238.5   Earth MOID: 0.0046   Ma: 0.0964
M  20.796276585 +/- 0.030           (J2000 ecliptic)             AutoNEOCP
n   0.487198883 +/- 0.000574        Peri.  308.059185 +/- 0.0040
a   1.599552599 +/- 0.00126         Node   293.160394 +/- 0.00037
e   0.43391745 +/- 0.00049          Incl.   10.926407 +/- 0.008
P   2.023/738.904d         H 26.65  G  0.15   U  7.7
q 0.905478808 +/- 7.25e-5    Q 2.293626390 +/- 0.00258
24 of 29 observations 2026 July 16-17 (24.5 hr); mean residual 0".48
Residuals in arcseconds: 
260716 U68  .20-  .25-    260716 T03  .14+  .13+    260716 L04  .11+  .01+    
260716 U68  .13-  .15+    260716 L18( 1.4+  1.7-)   260716 L04  .12+  .08-    
260716 U74  .43-  .05-    260716 L18  .26+  1.1-    260717 J95  .35-  .40+    
260716 U74  .67+  1.0-    260716 595  .23+  .13-    260717 J95  .12-  .32+    
260716 U74( .57-  1.8-)   260716 595  .33-  .71-    260717 J95  .04-  .14+    
260716 U74  .13-  .57+    260716 126  1.5+  .94-    260717 J95  .10+  .20-    
260716 U74( .09+  2.3-)   260716 L18  .74+  .02-    260717 H36  .11+  .02-    
260716 U74  .16-  .56+    260716 126( .85+  1.8-)   260717 H36  .13+  .52-    
260716 T03  .21+  .28+    260716 C82  .64-  .82-    260717 H36  .36+  .21-    
260716 T03  .07-  .93+    260716 C82( 3.5-  1.0-)   

Ephemerides (geocentric):
Date (UTC) HH   RA             Dec           delta  r     elong  mag " sig PA
---- --------  ------------   ------------  ------ ------ -----  --- --------
2026 07 17 09  21 23 08.382   +03 23 04.46  .02081 1.0336 145.7 19.7 .358 160
2026 07 17 10  21 22 25.116   +03 32 29.77  .02107 1.0338 145.7 19.7 .364 160
2026 07 17 11  21 21 42.876   +03 41 41.17  .02133 1.0340 145.8 19.8 .370 160
2026 07 17 12  21 21 01.627   +03 50 39.16  .02158 1.0343 145.8 19.8 .376 160
2026 07 17 13  21 20 21.337   +03 59 24.17  .02184 1.0345 145.8 19.8 .382 159
2026 07 17 14  21 19 41.971   +04 07 56.66  .02210 1.0347 145.9 19.8 .388 159
2026 07 17 15  21 19 03.499   +04 16 17.03  .02236 1.0349 145.9 19.9 .394 159
2026 07 17 16  21 18 25.892   +04 24 25.70  .02262 1.0351 145.9 19.9 .401 158
2026 07 17 17  21 17 49.120   +04 32 23.03  .02288 1.0354 146.0 19.9 .407 158
2026 07 17 18  21 17 13.157   +04 40 09.42  .02314 1.0356 146.0 19.9 .414 158
2026 07 17 19  21 16 37.977   +04 47 45.20  .02340 1.0358 146.0 20.0 .420 157
2026 07 17 20  21 16 03.555   +04 55 10.72  .02366 1.0360 146.0 20.0 .427 157
2026 07 17 21  21 15 29.867   +05 02 26.29  .02392 1.0362 146.1 20.0 .434 157
2026 07 17 22  21 14 56.889   +05 09 32.25  .02419 1.0365 146.1 20.0 .441 156
2026 07 17 23  21 14 24.601   +05 16 28.87  .02445 1.0367 146.1 20.1 .447 156
2026 07 18 00  21 13 52.980   +05 23 16.45  .02471 1.0369 146.1 20.1 .454 156
2026 07 18 01  21 13 22.006   +05 29 55.27  .02497 1.0371 146.2 20.1 .461 155
2026 07 18 02  21 12 51.661   +05 36 25.60  .02523 1.0374 146.2 20.1 .468 155
2026 07 18 03  21 12 21.925   +05 42 47.67  .02550 1.0376 146.2 20.1 .475 155
2026 07 18 04  21 11 52.780   +05 49 01.76  .02576 1.0378 146.2 20.2 .482 155
2026 07 18 05  21 11 24.209   +05 55 08.08  .02602 1.0380 146.2 20.2 .489 154
2026 07 18 06  21 10 56.195   +06 01 06.86  .02629 1.0382 146.3 20.2 .495 154
2026 07 18 07  21 10 28.722   +06 06 58.33  .02655 1.0385 146.3 20.2 .502 154
2026 07 18 08  21 10 01.776   +06 12 42.70  .02681 1.0387 146.3 20.3 .509 154
2026 07 18 09  21 09 35.340   +06 18 20.16  .02708 1.0389 146.3 20.3 .516 153
2026 07 18 10  21 09 09.401   +06 23 50.91  .02734 1.0391 146.3 20.3 .523 153
2026 07 18 11  21 08 43.945   +06 29 15.15  .02761 1.0394 146.3 20.3 .530 153
2026 07 18 12  21 08 18.959   +06 34 33.04  .02787 1.0396 146.4 20.3 .537 153
2026 07 18 13  21 07 54.429   +06 39 44.77  .02813 1.0398 146.4 20.4 .543 152
2026 07 18 14  21 07 30.344   +06 44 50.51  .02840 1.0400 146.4 20.4 .550 152
2026 07 18 15  21 07 06.692   +06 49 50.41  .02866 1.0403 146.4 20.4 .557 152
2026 07 18 16  21 06 43.460   +06 54 44.63  .02893 1.0405 146.4 20.4 .563 152
2026 07 18 17  21 06 20.639   +06 59 33.33  .02919 1.0407 146.4 20.4 .570 151
2026 07 18 18  21 05 58.217   +07 04 16.65  .02946 1.0409 146.4 20.5 .577 151
2026 07 18 19  21 05 36.183   +07 08 54.74  .02972 1.0411 146.5 20.5 .583 151
2026 07 18 20  21 05 14.529   +07 13 27.72  .02999 1.0414 146.5 20.5 .590 151
2026 07 18 21  21 04 53.244   +07 17 55.73  .03026 1.0416 146.5 20.5 .596 151
2026 07 18 22  21 04 32.319   +07 22 18.90  .03052 1.0418 146.5 20.5 .603 151
2026 07 18 23  21 04 11.745   +07 26 37.35  .03079 1.0420 146.5 20.6 .609 150
2026 07 19 00  21 03 51.513   +07 30 51.19  .03105 1.0423 146.5 20.6 .615 150
2026 07 19 01  21 03 31.614   +07 35 00.56  .03132 1.0425 146.5 20.6 .622 150
2026 07 19 02  21 03 12.041   +07 39 05.54  .03159 1.0427 146.5 20.6 .628 150
2026 07 19 03  21 02 52.786   +07 43 06.26  .03185 1.0429 146.5 20.6 .634 150
2026 07 19 04  21 02 33.841   +07 47 02.82  .03212 1.0432 146.6 20.6 .640 149
2026 07 19 05  21 02 15.198   +07 50 55.31  .03239 1.0434 146.6 20.7 .647 149
2026 07 19 06  21 01 56.851   +07 54 43.84  .03265 1.0436 146.6 20.7 .653 149
2026 07 19 07  21 01 38.792   +07 58 28.50  .03292 1.0438 146.6 20.7 .659 149
2026 07 19 08  21 01 21.014   +08 02 09.38  .03319 1.0441 146.6 20.7 .665 149